Theta_e
322 323 323 323 323 322 322 322 322 323 323 323 323 322 322 322 322 321 322 322 322 322 323 323 323 323 323 322 324 322 312 296 295 296 295 296 307 321 321 324 323 323 322 306 300 298 297 297 298 296 294 295 294 294 295 301 305 305 298 294 294 294 292 294 292 291 291 291 289 291 292 294 292 292 292 294 294 294 293 294 296 294 292 292 291 293 295 297
322 322 322 322 322 322 322 322 322 322 322 323 323 323 322 322 322 322 321 322 322 322 323 324 322 323 323 322 322 318 299 297 295 294 294 306 318 324 325 323 324 323 310 296 294 295 294 293 293 294 292 292 294 292 299 294 304 298 291 292 294 291 295 294 291 290 290 292 288 291 291 293 294 291 292 293 292 291 292 294 294 295 296 291 292 293 295 296
321 321 321 321 321 321 321 321 321 321 321 322 322 322 322 322 322 322 322 322 321 322 321 323 322 322 322 323 321 318 303 294 293 293 298 318 323 324 323 325 324 321 297 297 296 295 294 292 291 291 289 290 289 291 294 293 300 294 293 289 290 291 293 291 288 289 288 289 288 290 290 291 290 292 292 292 288 288 291 294 292 292 295 296 290 291 294 296
320 320 320 320 320 321 321 321 321 321 321 320 321 322 322 322 321 322 322 322 322 322 321 321 321 321 322 321 324 300 293 291 288 293 295 316 323 323 324 323 323 313 302 300 296 295 292 291 289 290 289 290 286 291 291 292 295 292 293 289 289 290 293 295 286 286 285 286 287 288 287 288 289 290 291 288 289 289 292 294 295 294 295 296 291 292 293 295
319 319 319 320 320 320 320 321 321 321 321 321 321 321 321 321 321 321 322 322 322 323 323 321 321 322 322 321 315 295 290 285 286 292 295 318 322 320 321 326 319 303 302 300 295 293 293 291 289 289 289 285 286 288 288 289 294 293 293 292 292 287 291 292 285 284 284 284 286 285 287 287 288 288 289 288 289 290 290 293 295 297 297 292 290 292 293 295
319 319 320 320 320 320 320 320 321 321 321 321 321 321 321 321 321 321 321 321 322 322 322 322 321 322 321 317 294 294 289 280 292 293 313 321 318 319 324 323 319 298 294 293 292 292 294 290 290 288 285 286 285 285 285 289 294 289 288 286 285 286 291 287 284 284 283 284 284 285 286 287 287 287 286 289 291 293 289 290 291 294 295 293 293 292 293 295
319 319 319 319 319 319 320 320 320 321 321 321 320 320 320 321 321 321 321 320 320 321 322 323 321 321 319 312 293 290 290 288 290 295 315 318 314 320 322 317 309 296 295 293 292 292 285 287 289 285 284 284 282 285 284 289 289 291 287 286 287 283 287 283 284 282 282 283 283 283 285 286 285 285 285 287 292 295 289 286 286 286 290 291 291 292 294 295
318 319 319 319 318 318 318 318 320 320 321 321 320 320 320 320 320 320 320 320 320 320 321 322 320 320 316 294 295 287 287 289 294 295 307 313 298 309 307 295 295 294 294 294 290 289 287 287 288 286 285 285 283 286 287 287 287 287 286 285 285 283 282 281 280 280 280 281 280 282 283 285 285 286 281 285 289 292 292 286 287 287 287 288 291 291 293 294
319 319 318 318 317 317 317 318 319 319 320 320 320 320 320 319 320 320 320 320 320 320 321 321 321 320 313 292 288 288 285 290 294 296 295 294 293 293 297 297 294 294 291 290 292 290 291 287 287 286 285 285 285 288 286 286 282 285 285 283 281 283 281 279 282 281 280 280 282 283 283 283 281 282 281 287 289 290 287 287 287 287 286 288 290 291 292 293
318 318 318 318 318 318 319 319 319 319 319 320 320 320 320 319 319 320 320 320 321 321 321 320 321 315 299 292 288 285 290 296 295 294 293 293 292 293 292 292 291 290 293 290 289 290 290 287 290 288 287 286 286 287 284 285 284 286 283 282 282 282 280 282 283 281 279 281 280 283 281 282 280 282 283 284 284 281 284 285 284 285 288 288 289 290 292 293
317 317 318 318 318 319 319 319 318 318 319 319 320 320 320 319 319 320 320 321 321 322 321 321 321 314 294 289 287 283 294 296 295 293 293 294 294 294 294 293 291 291 290 289 291 288 291 288 287 288 291 286 286 284 285 286 284 282 283 281 281 279 281 280 280 279 280 283 279 281 281 281 279 281 284 288 283 283 283 282 283 284 286 287 288 289 290 292
318 317 317 318 319 319 319 318 318 318 319 320 320 320 320 320 319 320 320 321 321 322 321 321 315 295 291 288 285 287 296 296 294 292 292 294 295 294 293 292 290 293 291 291 291 289 288 291 289 291 286 288 284 286 284 284 284 283 282 283 278 280 283 279 281 279 281 281 281 280 281 281 279 280 286 286 281 284 282 282 282 283 285 285 286 287 289 291
317 317 317 317 317 319 319 318 318 319 320 320 320 320 319 319 319 320 320 320 322 321 321 319 306 297 295 289 289 293 293 291 293 291 293 292 292 291 291 291 292 291 293 292 290 292 288 289 290 288 288 286 284 284 284 284 282 284 281 280 282 279 279 279 280 279 281 282 279 281 278 279 278 284 286 283 281 282 283 282 283 283 284 284 284 286 288 289
317 317 317 318 318 319 319 319 319 319 320 320 319 319 319 319 319 320 320 320 322 322 321 315 295 293 295 286 293 296 295 291 294 294 292 292 293 292 292 292 289 289 290 292 291 289 289 288 291 290 289 289 287 288 284 280 281 283 281 278 278 276 275 279 279 280 282 281 280 282 278 282 280 283 283 280 280 282 282 283 283 282 283 284 284 285 287 288
316 317 316 317 318 318 319 319 319 319 319 319 319 318 319 319 320 320 321 320 322 322 318 310 297 296 289 290 293 295 313 293 294 292 291 292 290 291 291 292 293 289 289 290 290 290 290 290 291 286 286 286 287 286 280 277 276 277 279 275 273 277 276 278 281 280 282 281 280 282 277 280 281 284 283 278 280 279 280 282 282 281 282 283 284 284 286 287
316 316 317 317 318 318 319 319 319 319 319 319 319 319 319 320 319 321 321 320 321 321 301 300 297 292 287 288 294 304 292 292 293 292 290 292 291 291 290 289 289 290 291 291 291 291 290 291 286 285 285 285 281 275 277 277 275 275 277 272 275 275 276 279 281 278 280 281 281 281 280 281 282 284 278 277 279 278 279 280 281 281 281 281 282 284 285 286
316 317 316 317 317 318 318 319 318 319 318 318 319 319 320 320 320 319 319 316 309 305 298 295 294 295 290 292 295 291 289 290 291 291 290 290 291 291 291 290 289 288 287 291 290 291 289 288 285 285 282 281 278 279 278 272 272 273 275 275 274 276 277 278 279 280 278 280 279 279 278 279 283 286 285 278 278 278 278 281 282 283 283 282 282 282 283 285
316 316 316 315 318 317 317 317 318 319 319 319 316 317 313 319 317 314 309 304 299 297 298 296 290 289 287 291 289 290 290 287 290 291 289 289 289 289 291 290 289 287 284 289 289 289 287 287 283 282 278 277 281 276 274 271 274 273 275 275 277 275 276 279 277 279 281 280 278 278 277 279 282 284 285 285 280 281 282 284 284 285 285 285 283 282 282 283
316 316 315 316 317 317 317 317 316 317 318 319 317 316 315 310 297 296 294 293 294 287 288 289 290 282 281 287 286 287 289 291 291 290 291 289 290 290 288 288 285 289 285 284 285 288 284 284 281 279 279 279 280 280 278 279 275 279 277 277 276 276 278 276 279 277 280 279 279 277 278 281 283 283 285 284 280 280 282 283 283 284 284 284 284 283 283 283
316 316 316 316 318 317 315 317 315 317 316 309 302 301 297 296 287 292 290 294 287 288 288 289 289 287 288 286 287 290 291 290 291 289 287 289 291 289 288 286 284 284 283 284 281 284 284 281 278 279 279 279 279 279 280 279 278 279 277 277 277 277 279 279 278 278 278 279 278 279 278 279 280 282 284 285 280 280 281 281 282 282 283 283 283 283 283 283
316 316 316 316 316 318 315 316 316 316 315 298 297 297 294 289 287 285 285 286 287 288 289 288 287 287 289 288 287 288 288 288 287 288 289 292 289 288 285 285 280 286 278 280 283 282 284 280 279 281 280 279 278 277 278 278 279 280 279 276 277 276 277 280 279 278 277 279 275 276 276 278 280 282 282 282 278 279 279 279 279 280 281 282 281 282 282 283
315 315 315 316 316 317 317 317 315 316 311 296 298 295 293 290 296 293 290 287 289 286 287 287 287 287 286 287 288 287 285 284 285 288 287 290 286 285 282 282 281 282 277 280 280 279 278 278 282 278 277 277 277 278 278 279 278 277 277 275 274 276 276 278 277 276 278 278 277 273 274 278 280 281 282 281 280 281 280 279 281 280 280 280 280 280 281 282
315 315 315 315 315 317 317 317 314 312 299 302 297 294 295 300 300 294 290 284 285 288 288 286 289 283 287 288 288 289 284 282 282 284 286 288 284 284 285 282 281 279 280 281 281 277 279 276 278 277 278 278 277 277 277 278 278 277 276 275 276 275 274 274 275 275 278 278 276 275 274 277 279 281 280 280 278 277 276 277 279 279 280 280 280 281 281 280
314 315 315 315 316 317 317 314 313 303 298 295 294 297 299 296 296 298 295 287 284 287 289 288 288 285 285 288 289 286 284 283 283 284 288 285 283 283 281 278 279 280 281 280 279 279 279 279 278 277 278 279 278 277 278 277 276 275 277 275 275 275 275 275 275 274 275 273 275 274 272 273 277 276 278 278 274 275 278 277 277 278 279 280 280 279 280 281
314 315 315 315 315 317 315 310 298 293 296 293 293 294 293 293 295 295 291 283 280 284 291 290 286 285 288 289 286 289 283 283 281 284 285 288 284 282 282 280 282 278 277 278 278 278 279 278 277 278 277 278 278 277 277 278 275 273 274 278 279 277 276 274 273 273 272 270 273 273 269 267 272 275 277 279 278 280 277 278 279 279 278 277 278 280 281 281
314 314 315 315 316 314 314 298 293 294 296 295 294 296 293 292 294 288 283 276 272 278 286 285 291 287 290 287 285 283 286 283 287 286 289 287 291 286 284 283 279 280 277 278 280 278 279 277 278 278 278 277 277 276 274 278 274 272 274 274 277 276 275 273 273 272 265 267 272 272 267 268 270 277 279 279 277 278 278 277 279 280 281 279 279 280 280 280
314 314 315 315 315 315 297 291 292 293 294 292 298 295 294 297 295 294 288 270 270 283 285 289 289 287 290 287 286 284 280 280 285 286 285 288 288 288 284 277 281 281 278 278 278 276 277 277 276 276 277 276 276 277 276 278 273 273 273 273 273 274 275 273 273 272 270 271 274 273 272 266 269 275 278 274 275 278 279 281 281 281 280 278 279 280 280 280
315 314 314 315 314 308 295 293 294 293 290 297 295 296 295 294 294 291 278 263 267 287 284 285 288 292 291 288 284 285 284 283 282 285 287 286 286 285 285 280 281 280 280 278 273 276 277 275 276 277 277 276 276 276 275 278 275 273 274 274 273 275 274 272 272 270 269 268 271 271 272 268 265 272 274 275 278 279 279 280 281 281 280 278 277 277 278 279
315 315 315 314 313 309 297 297 293 294 296 295 294 296 295 292 291 283 272 269 279 282 294 286 295 290 284 287 286 279 283 283 282 284 284 286 286 285 282 281 280 278 279 279 278 274 277 278 275 278 276 276 276 274 275 278 277 275 274 275 274 274 273 273 269 271 267 268 267 273 272 269 272 270 277 274 276 277 278 280 281 280 278 278 278 278 278 277
315 314 315 313 303 302 297 295 297 298 295 294 295 294 291 291 284 276 269 265 285 278 288 288 288 284 281 284 279 280 284 283 280 282 283 283 286 284 284 282 280 280 280 277 278 277 278 281 280 277 277 276 274 275 273 276 276 276 275 274 271 271 271 270 268 264 264 260 271 272 272 272 269 272 276 278 280 280 279 278 278 278 278 278 278 278 278 278
313 314 312 308 296 296 296 295 295 295 296 296 292 289 288 283 271 264 265 273 283 283 285 284 284 281 279 280 279 278 283 280 281 280 282 281 284 279 283 283 280 274 272 272 276 277 276 278 279 278 278 275 276 275 275 275 275 274 273 272 272 272 268 268 262 264 262 263 267 267 270 270 265 269 273 276 278 276 278 280 281 281 282 282 282 281 280 279
311 312 314 302 300 293 296 295 297 296 294 290 290 287 284 278 275 272 271 283 279 280 281 281 281 279 279 280 279 277 279 278 279 280 280 276 276 277 278 275 272 272 271 270 272 273 274 276 277 278 280 278 276 275 275 275 275 274 272 270 267 263 262 260 263 262 261 266 268 266 269 269 270 275 278 279 280 282 279 279 280 280 280 280 280 279 279 279
311 310 309 303 300 295 297 294 296 299 293 292 287 282 275 268 268 263 271 276 278 282 281 282 280 280 279 278 277 277 279 279 280 280 279 279 278 277 276 278 275 278 273 271 272 271 274 274 275 278 277 279 277 275 271 272 273 273 273 266 263 261 260 260 262 258 260 268 267 269 270 268 272 275 277 280 282 280 278 278 277 277 277 277 278 278 279 279
309 306 297 299 297 298 298 295 294 296 291 291 283 283 276 269 268 281 274 275 280 279 282 280 279 276 280 279 276 279 278 278 280 280 280 277 276 276 275 278 277 279 275 273 274 267 267 273 274 277 277 277 278 278 274 271 272 273 272 273 270 263 262 262 258 267 271 269 266 267 265 264 267 276 275 275 277 277 278 278 278 278 278 278 278 279 279 278
308 300 295 292 292 293 295 293 294 292 287 287 280 274 269 266 263 269 271 273 278 279 282 281 279 277 276 276 277 277 279 275 278 277 277 279 276 274 274 275 278 273 272 273 267 267 272 273 274 277 276 277 277 276 274 273 273 273 271 272 266 269 268 268 263 260 259 261 265 263 267 268 273 275 277 278 278 277 278 277 278 277 278 278 277 277 278 278
305 298 293 290 293 294 292 294 290 291 289 283 276 271 269 268 275 274 279 281 281 281 280 277 276 276 274 271 273 278 281 277 276 277 274 277 275 276 275 274 277 277 274 272 266 270 270 270 274 276 275 276 276 275 277 275 270 272 272 267 270 272 272 265 266 266 266 260 266 261 268 272 273 274 275 276 275 276 276 276 276 276 276 277 276 277 277 278
293 292 293 291 292 293 292 290 291 291 288 282 276 271 268 275 277 276 285 283 283 281 274 276 272 277 271 272 272 271 275 278 276 276 273 274 275 276 277 277 277 279 276 277 271 273 270 275 275 276 277 277 275 275 276 276 274 272 267 271 274 272 272 268 264 261 257 260 265 263 269 271 269 268 275 274 273 274 274 275 275 275 276 275 276 276 277 277
294 292 293 291 295 293 291 291 292 288 284 279 275 286 276 282 281 282 281 282 282 279 277 276 273 278 271 272 275 274 277 276 275 276 274 274 277 277 277 276 277 277 277 278 276 274 273 271 275 271 274 276 276 278 278 278 276 274 270 275 272 267 268 268 262 262 261 260 261 264 262 263 264 269 272 271 271 273 273 274 274 274 274 275 275 276 277 277
287 288 288 292 293 293 292 290 290 285 281 277 269 280 281 279 280 281 281 282 281 279 279 275 274 274 276 270 271 273 273 273 272 275 273 273 274 280 280 279 279 277 276 277 276 274 275 269 273 273 275 277 275 275 270 270 275 275 276 274 273 271 267 266 269 261 264 266 265 266 266 269 269 269 271 271 272 273 273 273 273 274 274 275 275 276 276 277
293 288 285 293 293 292 291 293 287 282 278 274 269 275 279 280 282 280 279 282 282 280 277 277 277 274 274 275 275 273 273 274 274 274 275 273 276 279 278 277 279 279 278 277 277 278 274 272 267 273 272 274 272 274 272 273 268 271 272 269 270 269 273 270 267 267 269 263 262 263 264 266 271 273 271 272 273 273 273 272 273 274 274 275 276 276 277 277
283 284 285 291 295 294 292 289 284 277 276 278 277 280 280 282 283 282 280 280 283 282 280 279 277 277 275 276 274 275 274 274 273 272 275 274 276 274 278 279 278 279 279 279 278 275 272 272 270 273 272 272 276 276 276 275 275 275 275 273 273 269 268 267 268 267 263 267 264 262 266 266 273 275 275 274 275 275 275 273 273 274 275 276 276 277 277 277
287 280 286 292 293 292 289 279 275 279 276 278 281 281 285 289 281 280 281 281 281 281 281 280 277 278 276 277 277 275 276 272 273 273 273 274 277 277 277 275 278 278 278 276 276 276 275 269 270 270 275 276 279 274 274 276 276 275 276 274 274 270 270 269 266 270 265 267 261 263 261 266 273 274 276 276 276 275 276 275 274 275 275 276 277 277 278 278
280 284 290 291 292 292 283 274 279 276 277 280 280 281 280 282 279 281 282 281 282 280 279 280 279 279 278 280 278 277 276 274 274 273 273 275 275 276 276 274 276 278 279 275 275 276 283 272 265 272 274 275 275 271 274 274 277 276 275 272 273 271 271 271 271 269 266 267 268 266 264 268 273 276 277 276 276 275 276 276 275 276 276 276 277 277 277 277
282 286 291 292 290 288 284 278 277 276 274 280 281 282 281 282 281 281 281 280 280 281 280 279 279 280 279 278 276 278 278 272 275 276 276 275 277 278 274 277 278 279 279 279 276 280 272 274 271 267 271 275 277 274 274 274 272 272 270 270 271 271 269 267 267 264 265 271 271 269 264 270 272 277 277 277 277 276 275 276 277 276 276 276 277 277 277 277
284 284 284 286 291 289 284 278 277 272 275 278 278 279 277 280 280 282 283 282 281 279 279 279 280 280 279 279 278 278 277 278 275 276 274 274 276 275 276 275 277 279 279 282 285 279 275 275 273 269 267 266 266 267 269 270 272 273 270 269 271 267 267 268 268 267 266 271 272 269 269 273 274 276 275 275 276 275 276 276 277 278 276 276 277 278 277 277
287 279 280 283 284 283 281 279 277 279 274 275 276 277 278 278 282 279 280 283 281 280 279 280 280 279 278 278 278 277 278 279 279 274 273 275 273 276 278 277 276 279 282 286 281 278 273 271 272 273 272 271 272 274 275 277 275 273 271 269 268 267 266 266 267 266 266 268 267 270 268 269 272 272 273 273 274 274 274 275 275 276 277 277 277 278 277 276
281 278 278 280 280 281 280 279 280 280 280 280 275 278 275 278 278 279 280 283 281 282 281 281 281 280 278 278 275 275 276 276 278 276 276 276 275 276 277 277 279 282 285 283 281 276 271 271 273 272 272 274 275 274 276 275 273 272 268 268 269 269 267 268 267 266 271 267 266 271 270 268 270 271 273 272 273 275 274 275 275 276 276 276 276 277 278 276
281 278 281 285 282 278 276 279 279 279 280 280 278 280 278 277 276 276 280 282 281 280 281 280 280 280 279 280 279 273 273 275 275 274 275 273 274 280 280 278 278 281 282 281 276 275 270 269 268 268 272 274 275 275 276 274 272 271 271 271 271 272 271 267 267 270 270 266 265 269 270 269 270 271 273 273 272 274 274 275 276 277 276 276 275 276 276 275
283 282 282 282 281 278 279 281 280 279 280 280 280 280 277 276 276 280 279 279 279 278 280 276 279 281 280 278 280 276 276 275 272 272 271 273 274 277 273 274 277 278 279 276 274 269 270 267 268 267 272 273 273 274 274 272 269 270 269 270 272 272 270 270 269 271 270 268 270 270 269 270 272 271 273 273 274 275 275 277 277 276 275 275 275 274 275 275
283 283 280 280 279 277 277 278 280 278 280 281 274 279 279 278 278 279 280 280 276 278 281 280 280 280 280 280 280 278 279 280 278 275 276 273 276 272 271 272 271 279 278 274 272 274 271 269 272 267 267 270 271 270 269 270 267 267 269 269 270 271 271 271 270 271 270 269 269 268 268 268 273 273 273 274 274 276 275 275 274 275 275 274 274 273 274 275
286 284 283 283 277 278 279 275 279 277 275 278 276 279 280 278 279 279 278 280 282 279 279 280 280 279 278 278 278 279 280 280 280 280 280 277 274 276 273 273 277 272 272 270 268 270 269 268 265 262 265 268 270 271 272 270 267 267 267 268 268 269 267 268 266 271 268 266 267 266 263 266 271 273 273 273 273 273 273 273 273 274 275 274 273 273 273 275
283 284 279 280 276 279 277 275 276 275 274 278 279 279 280 280 279 278 278 280 279 282 281 281 279 279 277 278 279 280 281 280 280 280 279 278 278 277 277 278 277 274 269 269 266 267 265 264 265 262 264 265 270 272 271 270 267 263 264 266 268 269 271 271 271 272 271 271 266 264 265 271 271 272 270 270 271 271 272 273 273 274 275 274 273 273 273 274
Wind_Speed
9 10 10 9 8 7 6 6 5 6 6 6 6 5 4 3 2 2 3 3 3 2 0 1 2 2 4 5 4 3 5 2 2 1 1 5 5 6 4 2 1 1 3 0 1 1 2 1 2 2 2 1 1 0 1 1 1 1 1 2 5 4 3 3 4 5 1 1 2 2 4 3 4 0 1 1 1 2 1 3 3 3 6 2 2 1 1 4
8 9 10 9 8 7 6 6 6 5 6 7 7 6 5 3 3 2 2 2 3 3 0 2 2 2 4 5 5 5 5 1 1 0 5 2 4 5 4 2 4 6 3 2 2 2 5 0 0 1 2 1 1 0 0 1 1 3 1 2 9 3 5 3 2 3 1 5 2 1 1 4 5 3 1 0 3 0 4 6 2 6 9 4 1 2 5 6
9 9 10 9 7 6 6 6 6 6 6 6 6 6 5 3 2 2 2 1 3 4 2 2 3 4 5 5 4 3 1 2 2 1 1 4 3 4 6 3 3 4 1 0 1 2 3 5 4 3 2 1 2 2 1 0 2 3 3 6 6 4 3 3 4 4 2 0 2 1 2 4 3 2 1 3 3 1 7 7 1 6 14 12 4 3 5 7
9 10 9 9 7 6 5 5 6 7 7 6 6 5 5 4 3 2 2 2 3 4 2 1 1 3 4 4 5 0 1 1 1 2 3 4 6 6 6 2 5 5 4 2 3 2 3 5 4 4 2 0 3 1 0 2 2 2 2 5 2 1 1 2 2 5 1 0 0 2 1 1 4 3 2 2 1 9 11 8 10 12 15 10 6 6 6 9
9 9 10 9 8 6 5 5 5 6 6 6 5 5 4 4 3 3 2 3 3 3 4 1 0 2 2 4 3 1 2 2 2 1 6 5 5 6 5 5 6 3 1 3 4 4 3 3 2 2 2 2 2 1 2 1 2 3 7 3 4 1 2 6 2 2 1 0 2 0 0 4 1 0 4 5 8 11 6 8 12 13 10 5 9 9 7 10
9 9 10 9 8 7 5 5 5 5 5 5 5 5 4 4 4 4 4 3 3 4 4 3 2 1 2 2 1 2 2 0 1 1 3 5 5 5 4 7 7 4 4 3 2 1 2 3 2 0 1 1 2 3 2 1 0 5 2 3 4 3 4 1 1 1 1 0 2 1 3 1 2 3 4 7 13 10 2 2 4 8 7 5 6 8 9 11
9 10 10 10 10 9 7 6 6 6 5 4 4 4 5 3 4 4 4 4 4 5 4 4 1 1 2 2 2 7 1 4 0 5 4 6 6 5 8 7 7 4 2 1 1 0 1 2 2 1 2 1 2 3 3 0 2 2 6 1 4 1 6 2 1 2 1 4 3 2 1 2 1 6 0 6 15 19 4 1 1 2 0 5 7 10 14 15
10 10 10 10 10 10 9 8 6 6 4 4 4 4 5 4 4 5 5 5 5 5 5 4 1 1 0 1 0 1 2 2 3 3 4 4 7 4 7 3 3 2 1 1 2 1 2 2 1 2 0 3 2 3 0 1 1 4 4 2 2 1 3 4 2 1 0 3 3 1 3 9 5 4 3 10 15 13 11 5 1 1 3 4 6 10 10 11
11 11 10 10 9 8 7 7 7 5 4 3 3 5 5 5 5 5 6 6 6 6 5 3 2 1 4 2 2 0 3 2 4 1 4 5 4 5 2 1 1 1 1 1 0 2 2 3 0 4 3 0 1 1 1 1 7 3 4 0 2 1 4 3 3 3 1 3 0 2 9 8 5 4 9 20 19 11 6 5 6 3 4 7 9 11 12 12
11 11 11 8 8 8 7 7 6 5 3 3 3 4 5 6 6 6 6 7 7 6 5 3 3 2 2 2 2 1 2 2 2 1 3 3 5 7 8 2 2 3 0 2 3 3 1 2 1 3 3 0 3 1 1 3 3 1 1 1 2 2 4 1 2 1 2 2 1 2 7 6 2 3 12 4 7 3 3 8 5 5 9 9 8 9 10 12
10 12 12 11 11 9 8 7 5 2 2 3 4 5 6 7 7 7 7 7 6 4 3 2 2 1 1 2 3 4 3 3 0 0 2 5 8 7 2 0 2 1 2 0 1 3 1 2 4 3 0 2 3 1 1 1 2 2 0 2 4 5 4 3 3 5 2 4 2 4 8 6 4 1 15 15 0 0 2 6 6 6 9 8 8 8 8 9
9 11 12 11 10 8 7 5 3 0 2 4 6 6 7 7 7 6 5 4 3 2 3 3 4 4 3 3 3 3 1 2 1 1 5 6 4 3 4 3 2 1 2 0 1 2 4 2 5 1 2 0 1 0 0 1 1 0 0 4 5 7 5 2 1 3 0 3 1 3 7 9 4 9 17 12 1 1 4 6 6 7 9 7 6 7 7 13
9 10 10 11 9 7 6 4 2 3 5 6 7 7 8 7 7 5 4 4 2 3 3 4 4 2 1 1 5 8 2 2 1 5 4 4 1 1 1 2 1 2 2 2 1 1 4 5 3 3 0 2 1 1 1 2 1 0 3 1 7 6 8 2 0 1 1 2 1 1 8 7 5 16 15 5 1 0 3 7 8 8 9 8 6 8 10 8
8 9 8 9 8 5 4 2 2 4 6 7 8 8 8 7 7 6 5 4 3 3 2 3 1 2 1 2 5 2 2 1 1 6 4 4 6 5 2 1 2 3 1 1 0 2 3 1 4 3 1 1 0 0 2 4 4 2 1 2 2 6 6 2 1 1 1 1 0 1 5 15 4 14 11 4 4 5 7 9 9 8 8 8 8 9 11 12
8 8 8 8 7 4 2 2 3 5 7 8 8 8 8 8 7 6 4 4 4 2 2 3 3 1 1 3 4 8 3 1 4 1 2 5 3 4 2 7 3 3 1 1 2 2 4 5 3 2 0 0 0 0 2 3 5 2 3 5 4 2 7 8 4 6 4 1 1 2 9 13 10 18 5 1 2 4 6 10 10 9 9 10 9 10 10 13
8 8 8 7 6 5 3 2 2 4 5 7 8 9 8 8 7 6 4 5 3 3 1 0 3 3 1 3 1 1 3 1 1 1 0 3 1 1 2 4 3 2 2 1 3 3 4 7 6 1 0 1 4 3 2 5 3 4 2 5 5 1 6 8 1 2 2 0 1 4 10 11 16 9 3 1 3 3 6 10 12 12 12 12 11 10 11 11
7 7 7 7 5 4 3 1 1 2 4 5 7 7 7 7 8 8 9 7 2 1 1 0 1 1 0 2 1 1 2 1 3 1 4 2 1 0 3 4 2 4 4 3 4 2 4 3 1 1 4 3 1 4 2 4 5 4 1 4 3 3 4 5 6 1 1 1 3 2 4 13 18 24 15 3 4 3 6 13 14 14 13 11 9 8 10 11
7 7 7 7 6 3 3 1 2 2 3 4 4 4 5 7 6 6 5 4 1 3 3 3 3 2 4 4 0 1 0 5 5 4 3 1 4 3 2 1 1 2 4 1 3 1 3 0 3 3 3 2 1 2 2 7 3 2 2 4 8 2 6 9 3 2 3 1 5 1 6 19 23 22 21 12 6 8 14 16 17 18 16 14 11 11 11 11
6 7 7 6 6 4 3 2 1 2 2 4 9 8 7 6 4 4 5 2 1 3 1 1 0 2 2 1 5 6 2 4 1 2 3 4 2 2 2 1 4 0 1 1 2 0 3 1 3 1 5 1 4 7 8 9 3 4 4 5 3 6 7 5 6 3 1 5 7 5 10 17 21 20 19 9 4 8 15 13 14 16 14 14 13 12 12 12
7 7 7 7 5 4 3 3 2 5 10 6 2 2 2 1 3 1 3 1 2 2 2 1 0 2 2 3 3 5 2 3 2 2 2 2 1 2 2 2 2 5 2 3 2 2 0 2 5 7 9 9 5 7 6 4 4 1 1 2 7 6 12 3 4 3 0 2 9 8 9 14 20 21 20 18 2 9 12 14 15 14 14 13 12 13 14 14
8 8 7 6 5 4 3 3 1 3 7 2 3 2 1 2 1 2 2 3 0 1 1 2 3 1 1 1 2 4 2 2 1 1 2 0 0 1 2 2 3 1 1 0 1 2 1 2 9 10 8 6 4 3 4 4 1 2 2 3 8 4 12 5 2 2 2 1 4 0 7 18 20 20 20 13 6 14 14 14 15 17 14 13 12 14 15 18
8 8 8 7 5 3 2 3 2 4 5 3 1 1 1 2 0 1 2 3 0 1 1 1 1 1 3 3 1 3 3 1 2 1 3 0 2 1 3 2 1 4 2 0 1 1 1 7 11 2 2 4 4 4 2 3 3 0 3 2 4 8 7 11 2 1 0 3 10 3 6 19 23 22 20 14 11 14 9 9 13 11 13 11 12 14 15 11
8 8 8 7 5 3 2 3 3 2 0 0 0 1 1 1 1 1 3 2 2 0 0 0 0 1 1 3 0 2 2 1 2 3 4 4 1 2 0 0 0 0 1 1 4 1 6 6 9 2 5 5 2 3 3 1 1 4 1 1 10 3 3 8 2 3 1 3 6 3 10 18 21 18 15 12 8 6 5 8 12 9 13 15 15 11 10 12
7 7 7 6 3 2 1 3 4 1 2 2 3 2 0 0 1 1 1 1 2 3 0 0 0 1 2 1 1 2 1 1 1 2 3 2 1 2 2 1 1 0 4 1 5 8 11 3 1 6 3 4 3 2 4 2 7 3 5 6 7 6 5 8 6 5 4 3 0 4 6 11 13 10 12 5 3 4 7 6 10 10 12 13 9 8 10 13
7 6 6 5 2 2 3 1 2 0 1 1 0 1 1 1 0 2 2 2 1 1 1 0 3 1 1 1 3 1 1 0 4 2 3 1 1 1 0 1 1 3 2 2 2 3 12 4 3 3 2 1 3 3 5 5 7 4 7 13 12 5 4 3 4 7 7 6 1 1 9 6 7 9 13 15 8 12 3 6 13 11 8 8 11 16 11 11
7 6 5 3 3 4 3 1 1 2 1 1 1 1 1 1 1 1 7 4 2 2 2 1 0 0 1 0 3 1 1 1 0 1 1 1 2 1 0 0 1 2 2 1 4 4 5 0 1 4 4 2 2 4 4 6 6 2 6 3 6 3 1 0 4 4 4 3 1 3 1 15 1 12 19 12 9 15 9 6 13 12 11 8 12 11 10 11
5 6 4 4 3 5 4 2 0 2 1 2 1 2 2 1 1 2 1 5 1 1 0 1 1 0 3 1 0 1 3 0 1 2 2 2 0 0 1 4 1 1 2 1 3 5 2 0 3 2 3 3 3 6 5 10 4 5 1 4 5 5 1 1 0 2 6 1 8 4 6 6 12 12 8 3 7 11 13 13 12 12 11 10 9 10 9 9
3 2 3 3 4 1 1 3 2 1 2 0 1 2 3 1 2 3 4 3 1 1 1 1 0 1 1 2 5 1 2 3 3 1 0 2 1 1 0 3 4 4 2 1 5 4 3 2 3 3 1 3 7 5 5 9 7 3 2 2 2 1 2 2 1 3 2 4 10 1 2 2 7 9 3 3 9 12 13 12 12 11 9 8 8 10 9 7
4 1 4 5 7 5 3 1 3 1 0 0 1 2 3 4 5 5 2 1 1 1 2 1 1 0 5 1 1 2 2 1 2 1 3 2 2 1 1 2 3 1 1 5 9 3 2 2 5 7 5 8 4 1 3 10 5 0 5 5 5 4 4 2 2 1 2 1 10 11 8 4 15 4 6 1 2 10 11 11 11 10 9 10 9 9 6 6
5 3 4 4 4 1 1 1 2 0 1 2 3 2 4 2 3 2 3 3 1 1 0 1 1 3 2 2 2 4 0 2 0 5 3 2 3 4 0 2 2 0 3 1 5 6 1 3 4 4 7 4 4 2 2 0 1 5 3 2 2 5 3 3 5 2 2 1 15 3 13 8 10 3 8 5 7 4 5 6 7 7 9 10 8 8 11 11
6 4 3 3 2 1 1 1 1 2 1 3 2 5 3 8 3 4 1 3 1 1 1 2 1 5 4 3 6 2 0 1 3 3 2 3 1 3 0 1 2 2 2 4 7 5 1 1 1 3 4 3 4 4 3 2 2 2 1 1 5 1 4 1 3 3 1 8 5 3 4 4 9 6 7 7 6 5 5 10 14 17 17 15 13 12 12 11
6 7 7 5 0 1 0 2 0 1 2 2 4 5 4 4 3 1 2 3 1 1 1 3 1 1 2 1 2 3 2 5 0 2 1 1 2 0 3 3 2 3 6 1 4 4 4 8 2 2 3 8 3 3 1 2 1 2 2 3 2 6 5 5 3 2 5 9 2 2 3 3 12 16 8 15 14 13 13 7 11 13 15 17 18 20 15 12
2 5 9 6 1 2 1 0 1 1 2 2 5 4 2 4 1 3 1 3 1 1 2 1 2 2 0 3 3 2 2 1 2 1 1 1 1 7 4 4 2 3 5 1 3 5 8 0 1 3 2 4 7 5 2 0 3 5 4 4 3 2 0 5 6 2 6 7 2 1 3 6 3 8 6 12 14 12 13 14 12 12 12 14 15 15 16 17
7 4 5 3 4 2 0 1 1 1 1 3 2 3 7 2 3 4 1 3 2 1 1 0 3 2 1 2 1 1 2 1 2 2 1 2 1 4 3 1 2 0 0 1 2 1 5 9 3 5 2 2 6 3 6 2 7 7 2 6 6 5 3 5 3 10 11 10 4 5 1 7 2 2 5 5 8 11 11 12 12 12 12 11 10 14 19 20
7 8 4 2 2 2 3 1 1 1 3 3 8 5 2 5 2 1 1 3 2 1 1 0 2 2 3 1 2 2 2 2 1 3 1 0 5 1 2 1 1 3 1 1 3 2 5 7 3 2 1 1 6 1 3 5 3 2 2 4 2 8 4 7 4 3 2 5 9 2 6 4 4 2 11 13 11 16 15 18 17 19 15 15 17 19 18 17
4 2 2 2 2 3 3 2 1 2 5 5 3 2 2 3 2 2 1 1 0 1 6 2 2 1 2 3 1 3 4 0 4 3 2 1 3 2 1 1 2 5 5 3 1 2 3 5 1 2 2 4 1 1 1 1 3 1 2 4 6 1 3 3 2 1 2 4 9 1 10 5 6 2 16 18 19 19 18 18 18 17 17 18 18 17 17 16
2 3 3 3 2 3 3 3 3 5 8 7 5 2 3 2 3 3 2 0 1 0 2 5 4 1 3 3 1 3 1 2 2 3 5 1 6 4 2 1 3 2 1 2 5 2 2 14 0 2 1 2 1 0 1 3 3 6 2 7 2 3 1 2 4 3 1 5 8 1 10 10 7 8 10 21 22 20 18 16 14 16 18 19 16 15 16 16
1 2 0 1 2 4 3 2 1 6 5 3 1 4 1 0 1 1 0 0 0 1 1 0 3 3 2 1 6 1 1 1 6 3 2 0 3 3 1 1 4 3 2 1 1 3 3 8 4 2 2 5 2 0 5 0 1 4 3 2 1 3 4 1 4 4 4 4 6 4 2 3 1 6 13 16 16 19 18 15 17 19 18 16 16 17 16 16
3 2 2 2 3 4 2 2 6 5 4 2 1 1 1 3 0 1 2 1 0 1 0 1 0 2 2 1 2 2 1 2 2 1 3 2 1 1 1 1 1 2 2 1 0 1 1 3 6 0 2 1 1 2 4 2 2 2 1 4 1 2 6 1 5 2 1 10 6 7 5 8 4 3 8 9 10 12 13 14 14 15 15 14 14 14 15 16
1 2 2 1 4 3 3 1 4 5 4 1 3 2 0 1 0 1 2 0 1 0 1 0 0 2 1 4 1 3 2 0 0 2 1 3 2 3 3 6 1 1 2 1 1 0 2 3 6 2 2 2 3 4 6 5 2 0 0 3 2 1 3 2 2 3 6 4 4 6 8 1 3 3 4 7 8 10 10 11 10 11 12 12 12 13 13 14
1 3 1 2 6 4 2 9 7 2 2 0 1 1 0 0 1 1 3 3 0 1 1 0 1 1 1 4 3 0 1 0 0 1 2 3 1 4 1 1 1 1 0 1 1 1 0 0 6 7 9 5 12 4 8 5 5 6 6 6 4 1 4 5 11 2 1 2 6 1 10 1 1 3 4 5 6 8 10 7 9 9 10 12 12 12 13 13
1 1 1 2 7 2 2 4 2 0 3 1 1 1 1 2 0 1 1 1 2 0 3 1 0 0 0 1 2 2 1 3 2 0 2 2 1 1 2 2 2 1 2 4 2 3 2 1 0 9 10 11 14 3 2 1 2 2 2 4 2 2 3 3 9 5 2 3 4 3 0 5 3 3 4 6 6 8 10 9 9 9 9 11 11 10 11 12
4 1 3 3 4 3 8 3 1 2 0 1 2 1 0 0 1 0 0 0 0 1 1 1 1 1 1 0 1 1 1 2 4 2 1 1 3 5 5 7 4 4 1 2 2 1 3 2 1 7 7 9 3 3 3 2 2 1 2 3 2 2 1 3 6 2 3 5 9 4 4 3 2 5 3 4 4 5 8 10 11 9 9 11 11 11 12 14
1 1 1 1 2 2 4 0 1 1 2 1 1 0 1 0 1 1 0 1 1 0 0 0 2 2 1 0 0 1 1 3 2 2 3 1 2 1 6 4 6 4 2 5 3 3 2 3 3 7 9 10 8 2 2 1 5 2 3 2 4 6 7 3 0 1 4 8 12 9 14 3 3 3 5 5 5 10 14 13 11 8 10 10 10 9 11 13
3 0 0 6 7 6 1 4 4 1 1 1 2 4 6 1 2 0 0 1 0 1 0 1 1 0 0 0 1 0 2 3 4 1 0 1 2 2 6 6 5 3 6 5 3 3 2 4 4 7 9 13 13 13 13 14 13 4 3 6 9 8 7 6 6 2 7 4 8 7 9 6 6 5 10 14 13 9 10 11 12 8 10 13 12 10 11 13
0 1 5 4 7 6 4 1 3 2 1 1 1 1 1 3 1 2 2 0 0 0 0 1 0 1 1 1 1 1 2 0 4 3 3 3 3 3 1 8 7 4 7 6 6 3 1 1 1 2 7 10 9 8 5 8 10 12 13 9 7 4 4 0 1 2 4 6 8 5 4 8 12 19 17 18 18 16 19 19 18 17 13 11 11 11 10 11
1 3 1 1 3 6 2 4 1 2 0 1 0 0 5 1 3 1 1 0 1 0 0 0 0 2 2 2 1 2 2 2 3 1 4 5 3 3 7 7 1 10 10 3 7 1 1 3 1 2 6 8 7 9 12 6 8 5 8 8 5 7 4 6 4 4 8 7 11 5 14 7 9 13 14 14 17 14 14 15 16 16 11 12 14 12 12 13
1 1 2 0 2 1 1 3 3 4 2 1 0 0 1 3 4 3 1 1 0 0 1 0 2 1 1 2 1 1 2 3 2 2 4 2 4 7 5 6 6 6 9 6 3 3 0 1 6 8 13 8 7 10 9 7 4 5 5 5 7 6 8 9 5 3 6 3 7 11 11 8 6 10 11 11 15 13 13 14 12 12 9 10 13 15 14 12
3 2 1 1 0 0 1 1 1 5 5 2 1 4 4 4 4 0 1 2 1 2 3 1 4 6 4 1 0 2 3 7 4 1 2 3 8 8 4 2 2 8 8 4 5 1 2 2 2 5 13 12 5 7 6 4 1 3 7 7 6 5 5 2 4 5 5 8 8 9 10 9 6 12 11 11 13 11 10 9 10 14 11 12 13 14 14 12
1 1 0 5 6 3 1 1 1 4 6 3 2 2 0 1 4 4 1 0 2 2 0 0 5 7 4 0 1 1 2 1 4 6 1 6 8 2 3 2 3 7 6 4 1 5 6 5 7 5 6 11 3 5 4 1 2 4 5 6 6 6 2 5 2 4 5 7 5 10 9 7 3 10 11 12 12 11 12 12 13 15 11 12 13 15 17 14
1 0 4 6 4 4 2 3 2 3 3 6 5 2 1 1 2 1 3 1 1 3 1 4 4 6 1 2 2 2 3 4 7 10 8 3 5 0 2 4 3 4 5 4 3 5 5 5 3 2 6 11 3 7 10 2 8 7 7 9 9 7 1 4 4 5 3 7 9 9 5 3 8 11 11 10 14 16 17 14 13 14 10 12 12 14 17 15
2 0 2 6 5 2 3 2 1 2 4 1 0 2 0 1 2 2 0 1 3 3 2 1 3 1 2 3 2 3 5 7 8 6 2 1 1 2 2 1 1 1 3 2 1 2 1 1 5 4 5 7 8 10 14 7 4 1 4 7 8 8 5 4 6 5 5 5 5 5 6 6 10 12 15 17 18 18 19 13 13 14 9 11 13 14 16 17
Wind_Direction
310 304 298 297 296 295 288 282 277 274 275 270 259 245 230 211 190 212 246 276 280 283 270 136 117 321 319 344 347 4 62 92 39 33 47 241 217 244 280 270 273 143 155 115 18 82 42 66 98 10 48 77 290 73 260 86 129 87 173 134 254 211 196 218 201 195 201 284 279 227 217 146 283 268 264 69 285 232 319 248 272 293 253 184 229 283 234 151
311 307 304 301 300 299 295 289 282 270 259 257 256 253 242 222 199 206 238 257 279 279 21 43 30 356 341 346 343 27 74 82 48 105 218 236 249 273 272 261 157 142 136 37 79 112 118 80 119 72 113 128 305 121 123 244 95 154 108 125 244 166 237 172 215 233 206 270 236 252 273 197 239 130 274 81 279 261 276 250 186 265 267 252 298 129 137 159
320 315 306 300 297 294 292 287 281 272 258 248 245 247 251 249 243 233 250 268 293 302 356 20 14 341 359 343 322 344 277 7 6 300 275 245 274 341 326 325 138 122 105 131 250 144 153 175 172 103 357 106 357 174 46 241 142 232 141 244 243 215 252 226 214 250 200 49 295 297 287 191 248 169 90 204 243 38 229 244 208 233 252 235 187 142 162 171
324 317 308 300 297 291 280 271 265 260 259 252 241 233 236 244 249 250 252 270 284 303 327 17 359 349 349 330 296 17 77 55 309 256 266 297 2 344 336 7 112 100 85 64 153 109 94 83 81 98 54 33 300 30 167 242 126 278 126 224 239 227 7 279 195 243 222 78 261 188 13 273 261 215 172 224 311 256 250 232 213 226 233 237 176 175 173 180
324 315 308 303 300 295 288 280 270 259 254 259 257 241 225 225 231 242 244 254 271 279 289 317 357 5 330 322 323 118 72 47 270 238 257 1 2 350 346 111 108 95 109 149 80 47 74 114 102 47 88 211 342 17 244 261 176 107 212 214 202 167 265 269 276 196 148 23 126 62 261 239 343 33 216 162 217 251 217 235 220 235 244 178 183 189 176 187
325 318 310 307 304 304 309 306 292 279 265 251 254 261 246 222 213 218 223 222 245 249 262 275 272 346 357 342 39 65 83 38 270 283 356 24 11 8 73 104 111 99 95 55 111 50 94 9 74 61 11 78 198 158 273 194 73 248 298 264 227 210 229 310 12 282 144 172 179 176 228 24 212 257 239 199 221 246 181 201 211 228 247 200 162 159 188 190
325 322 319 318 317 322 324 325 313 304 290 273 249 244 257 242 218 213 210 211 218 233 242 255 236 65 292 6 41 80 97 260 334 259 21 41 27 45 91 89 91 88 86 77 21 90 73 87 101 204 99 29 297 197 271 336 357 205 253 331 307 160 224 12 310 64 166 159 231 209 7 249 232 276 270 205 234 243 226 200 245 278 202 139 151 183 188 193
332 329 324 321 324 327 326 323 315 298 283 267 252 232 224 229 216 203 200 204 212 218 224 232 233 223 21 47 153 338 28 266 255 289 330 55 26 62 109 74 86 79 58 321 153 112 115 109 171 143 50 170 228 154 325 323 98 206 264 256 264 127 254 300 265 309 300 253 252 241 255 251 211 237 16 253 244 247 249 216 236 94 116 165 180 190 199 202
333 327 324 322 317 315 316 311 304 290 268 240 217 215 205 198 205 196 190 197 203 210 219 214 211 71 112 83 105 27 285 240 221 308 19 32 26 55 10 298 51 105 142 64 324 181 139 259 131 175 260 270 196 203 323 169 304 193 228 250 291 275 313 279 308 281 340 280 165 304 261 270 260 280 260 251 258 248 240 246 237 178 178 194 202 198 195 203
333 325 317 316 320 327 333 328 308 286 258 221 198 187 186 182 190 188 189 189 193 200 205 193 142 151 69 84 44 78 260 239 313 16 59 38 65 72 51 96 92 91 36 341 85 94 117 227 113 185 120 153 148 200 118 140 232 176 234 231 258 270 348 311 210 281 317 256 250 255 281 283 322 47 282 189 255 334 234 240 233 202 225 219 212 209 209 204
332 324 325 335 333 335 347 347 330 294 229 194 172 169 166 173 180 180 185 186 181 188 176 148 151 162 77 78 113 199 250 52 215 15 65 46 17 14 319 334 145 80 114 112 273 183 185 155 180 123 57 226 130 284 159 222 141 51 199 312 283 326 275 252 293 278 332 300 175 204 265 280 286 134 246 264 216 27 197 251 250 226 239 232 224 218 216 217
336 332 329 328 330 343 359 355 355 58 147 147 149 156 160 161 165 170 164 160 151 138 112 87 106 103 79 72 138 207 258 195 43 57 55 30 345 270 208 178 175 178 142 5 292 238 192 172 134 126 230 83 292 334 250 250 76 270 54 318 295 343 340 352 293 329 184 261 148 181 296 269 190 231 245 254 336 227 223 258 258 245 246 245 233 227 218 220
342 332 325 327 337 354 359 5 46 111 127 135 145 149 148 145 142 139 130 96 98 102 101 119 76 84 87 9 239 235 286 264 82 52 19 33 351 98 141 154 232 174 167 142 247 242 183 146 138 121 199 109 174 275 175 75 322 188 35 101 321 349 322 287 250 336 110 259 116 297 306 259 213 241 258 253 142 59 263 262 252 247 245 244 235 229 231 231
340 329 328 331 337 352 351 352 122 129 130 135 137 135 130 125 118 109 90 76 90 87 116 96 82 62 81 242 271 237 267 166 48 39 351 323 28 314 88 3 80 44 18 193 270 127 111 109 104 116 121 96 348 313 38 336 16 246 256 64 279 2 275 279 147 134 235 203 336 102 244 284 263 267 250 276 224 207 251 256 257 251 256 251 240 232 231 231
334 333 339 341 342 344 290 205 148 137 130 124 121 117 113 107 99 92 81 90 88 112 117 50 39 78 48 267 266 293 221 129 54 306 304 27 14 342 318 338 337 351 294 124 157 81 118 106 99 46 247 247 356 66 332 12 357 11 8 296 317 168 276 295 248 183 196 354 242 118 266 263 279 275 247 201 141 166 239 262 265 258 248 243 241 237 238 238
336 341 348 345 340 336 298 237 153 123 118 115 111 111 105 100 95 82 71 107 104 75 25 105 2 93 101 311 150 22 40 50 320 297 270 68 109 256 271 275 289 6 56 13 88 113 57 83 71 182 229 358 53 88 20 12 338 352 140 266 279 260 267 335 351 241 308 83 318 172 259 309 294 267 53 106 150 168 233 264 265 261 252 249 240 233 237 247
338 349 350 342 333 323 302 276 90 87 90 97 96 93 97 99 91 84 88 84 58 68 71 30 80 87 106 247 324 33 278 270 293 11 338 31 103 202 350 18 1 340 9 80 31 63 359 64 280 29 36 106 134 94 3 338 308 302 41 230 213 253 299 295 302 57 320 161 261 263 229 253 258 281 271 203 141 177 246 258 262 261 258 249 248 244 243 241
337 355 348 342 337 325 304 23 58 71 86 95 79 114 102 107 111 109 61 43 44 88 104 99 116 47 291 355 164 283 123 291 348 296 242 282 82 43 73 14 322 40 38 27 359 121 331 240 35 201 3 359 48 63 131 249 208 249 278 306 303 279 215 251 296 265 25 158 226 279 259 268 270 273 278 269 203 229 249 253 257 261 262 260 249 246 244 242
345 353 344 338 341 339 312 353 25 193 129 87 83 85 92 85 39 82 71 5 47 339 19 309 126 147 203 250 292 296 258 233 289 33 321 9 349 94 51 85 65 319 313 50 254 83 355 80 30 33 261 210 229 175 191 228 170 233 209 229 231 280 271 211 240 280 112 287 283 235 249 273 279 280 281 282 177 222 247 254 259 262 262 262 257 253 247 243
346 348 338 330 333 330 310 320 334 132 135 106 74 82 17 14 5 334 343 36 162 192 186 228 174 238 302 335 323 280 243 22 121 340 328 302 2 359 35 52 356 58 100 212 294 59 341 198 226 224 225 220 232 199 206 231 180 86 116 193 245 252 279 264 265 258 37 305 253 257 254 268 274 275 280 287 234 242 253 257 260 258 257 256 255 250 247 245
341 337 324 317 309 314 307 298 328 146 183 102 100 67 281 172 57 324 300 267 211 108 90 239 184 192 262 270 301 6 21 319 70 313 355 188 73 101 283 25 22 202 346 270 194 310 54 333 258 229 231 208 226 173 105 91 82 183 230 237 277 207 269 274 298 36 293 169 284 62 307 278 271 279 280 289 288 268 252 256 260 259 253 255 251 249 243 243
339 321 309 293 295 307 273 268 318 94 113 107 76 185 190 198 206 202 116 315 306 206 69 310 160 313 321 209 259 134 98 359 352 278 301 78 322 68 300 84 122 227 324 355 11 17 358 225 252 213 208 111 86 118 131 157 170 75 208 234 304 265 249 288 312 353 295 132 270 19 319 288 287 286 290 281 267 262 251 231 249 248 261 251 245 246 250 252
325 310 291 282 281 310 250 253 323 47 52 338 21 90 206 270 284 270 89 128 282 270 52 31 184 323 329 305 292 115 50 263 256 322 326 20 7 60 270 33 42 16 343 90 205 246 303 273 263 181 139 109 52 96 116 94 103 186 178 217 249 214 29 307 285 358 209 182 273 4 319 287 289 287 276 270 249 251 261 248 248 238 248 250 242 238 246 248
311 294 276 273 270 283 231 245 292 9 32 141 129 179 300 90 49 82 57 267 277 308 192 221 153 189 242 18 227 96 125 265 105 296 338 67 81 207 66 129 103 90 234 184 189 193 223 194 127 122 138 148 173 153 149 190 258 237 202 229 262 256 234 194 273 313 256 308 27 308 268 289 274 298 314 293 213 296 281 276 267 254 240 254 278 272 234 243
295 279 269 257 245 198 211 341 8 203 153 70 354 247 268 254 175 150 88 335 14 311 137 21 105 257 231 63 13 353 242 338 223 242 286 80 189 22 329 188 132 254 195 163 121 276 275 263 147 94 94 108 156 226 215 167 260 307 222 211 232 242 243 281 324 356 353 326 348 28 338 268 299 295 279 287 324 295 271 303 284 272 255 246 254 251 250 245
280 268 252 234 206 188 195 61 274 156 90 190 219 242 261 67 95 84 95 74 315 262 343 221 172 319 100 321 8 178 90 307 215 236 96 246 165 137 103 78 120 271 167 181 210 209 240 348 137 183 157 151 185 216 242 160 220 355 275 211 242 225 184 30 324 27 325 270 278 77 75 285 98 298 289 306 304 290 306 273 275 281 269 248 245 250 244 236
278 255 229 207 199 165 97 235 200 110 35 291 237 295 332 65 121 99 24 341 21 255 211 244 62 286 93 273 8 54 360 283 348 10 41 339 90 295 190 265 352 43 175 184 24 273 110 6 70 68 130 159 207 261 234 156 122 248 250 111 103 106 130 226 121 188 238 282 278 186 178 240 303 274 288 301 309 292 299 290 273 268 273 262 253 254 251 242
312 219 187 169 158 120 202 140 106 141 195 283 303 357 34 90 59 47 79 39 311 12 15 310 188 338 90 323 51 182 244 310 3 257 164 295 82 341 118 233 185 208 199 121 250 256 144 170 182 165 157 167 219 212 186 164 154 221 210 100 122 121 179 144 161 229 252 37 292 117 226 279 244 260 268 303 308 300 288 282 287 287 282 270 269 268 266 259
353 159 151 123 98 81 94 122 134 170 269 8 5 29 71 67 85 105 116 130 242 68 211 47 340 31 337 320 41 25 321 4 192 270 315 332 28 177 272 242 174 163 260 187 222 277 280 184 208 168 152 232 217 258 177 169 209 214 132 91 81 75 69 111 124 116 330 337 278 257 171 223 276 185 302 318 244 278 271 273 275 278 281 294 299 293 294 321
12 115 128 122 78 60 2 48 49 192 69 54 38 95 48 54 33 37 12 270 22 332 128 245 36 278 25 5 302 353 157 299 164 315 25 153 324 35 6 133 123 121 236 351 256 239 215 307 163 145 209 204 134 55 144 38 104 132 110 88 25 40 56 31 66 93 56 325 247 244 181 178 290 201 182 250 243 225 287 301 281 299 322 324 324 332 346 342
17 63 108 53 131 199 90 15 303 3 27 91 98 53 71 39 110 102 240 231 35 264 27 23 293 21 33 36 324 310 13 356 328 22 278 8 281 29 50 309 64 34 28 345 278 301 334 90 170 256 72 104 106 77 36 106 143 119 93 116 357 344 15 41 345 45 126 269 261 287 225 186 220 292 273 245 300 288 283 316 339 338 332 328 334 346 346 342
31 53 53 69 90 18 118 209 355 12 34 98 65 60 66 264 10 165 230 333 40 294 67 288 3 93 25 354 163 315 324 327 330 37 325 356 308 28 210 182 179 349 329 329 304 356 275 214 234 337 215 129 126 82 25 41 27 101 77 27 66 280 15 317 37 294 197 227 202 345 159 317 230 248 313 308 292 310 32 348 327 327 333 342 345 347 350 345
59 89 71 58 50 46 27 118 49 142 78 49 71 51 60 91 266 269 313 318 270 27 293 131 259 355 280 343 270 291 241 217 311 83 161 304 2 272 249 200 214 189 255 277 290 10 279 338 26 223 78 219 140 152 231 341 194 120 162 150 99 309 30 255 273 214 302 280 290 76 99 252 275 298 254 265 294 20 12 12 7 7 360 350 353 354 359 0
59 55 66 1 76 90 123 73 96 196 67 42 67 40 50 38 252 216 284 251 277 354 30 348 334 352 156 227 257 334 345 247 54 308 41 285 33 292 328 309 155 90 59 314 296 213 329 329 271 165 261 113 201 194 181 161 155 204 115 150 184 155 179 274 233 270 265 260 279 278 46 231 17 251 345 330 8 27 15 17 12 12 12 2 355 13 18 13
74 63 88 1 41 43 40 63 43 107 80 66 50 87 125 246 219 212 259 306 297 298 257 188 304 13 313 4 295 292 184 312 42 342 345 126 279 197 248 277 284 103 138 62 270 65 228 233 258 10 239 139 180 328 113 98 78 164 165 81 74 240 125 233 210 204 293 337 329 270 204 192 191 64 20 30 24 27 13 19 14 10 10 12 17 16 16 16
26 337 55 23 27 319 31 10 59 72 90 59 74 53 184 199 350 174 250 203 318 350 305 1 76 16 291 309 316 62 330 192 301 28 302 202 234 244 228 235 181 203 146 160 224 300 355 285 300 3 42 169 190 109 259 126 259 182 93 209 212 198 163 312 352 84 71 66 247 153 299 270 298 4 12 9 20 10 11 12 16 9 2 16 21 14 12 12
28 340 42 330 5 335 13 20 51 84 65 93 91 250 207 281 198 167 264 188 279 164 44 26 301 54 323 305 280 343 288 19 284 49 292 242 314 194 284 311 192 266 169 98 309 193 177 282 283 95 256 27 222 221 280 327 144 86 210 243 249 162 111 139 234 315 61 208 265 80 256 296 31 289 15 1 2 359 3 5 3 14 10 17 12 9 7 8
67 58 138 31 305 340 29 8 69 50 80 83 152 242 200 142 177 190 215 61 329 16 73 131 272 68 296 42 313 2 309 27 299 26 263 90 279 182 116 121 9 59 334 300 144 283 100 315 317 341 160 282 347 75 311 90 357 192 188 266 68 269 305 324 85 282 259 260 263 290 284 268 177 295 356 0 359 349 353 354 8 10 12 9 6 4 1 4
61 80 25 312 346 27 337 27 72 67 63 71 245 8 226 250 286 132 254 276 159 107 309 252 238 320 123 277 248 296 341 322 310 352 11 281 42 38 15 132 16 333 338 223 259 276 3 223 300 211 110 277 329 75 261 290 349 86 17 338 331 118 223 181 221 221 113 276 306 278 263 275 62 336 327 342 354 346 351 0 4 7 6 6 2 1 1 4
32 36 344 309 337 3 355 68 61 50 68 155 225 220 205 283 311 313 7 123 331 50 257 230 41 307 330 226 122 311 314 138 142 278 136 287 338 310 30 352 119 334 307 331 188 140 276 116 260 288 307 20 312 161 220 160 188 334 90 289 350 224 221 125 296 205 252 252 233 298 291 250 70 39 335 346 354 351 354 358 356 1 2 0 1 360 0 3
25 102 266 300 337 316 43 42 52 55 107 246 159 218 30 253 343 351 360 35 70 30 169 196 165 219 238 354 336 199 303 334 221 224 208 296 153 319 71 39 224 348 348 10 33 270 286 206 225 310 330 281 264 192 198 184 186 201 180 234 189 139 295 299 273 70 36 237 249 240 274 22 192 84 13 6 358 1 358 359 354 355 358 360 357 0 1 1
82 36 289 321 335 27 77 48 10 211 98 141 317 182 352 69 48 332 351 329 96 246 4 105 123 184 119 242 214 321 30 292 246 247 261 179 261 170 301 35 224 178 67 293 238 247 152 192 138 278 258 274 286 346 6 118 83 134 134 265 138 161 118 242 276 279 14 227 118 199 340 271 112 295 26 20 13 6 5 357 352 352 356 356 357 357 0 4
55 160 257 339 330 79 65 64 285 37 59 244 299 313 352 23 116 211 54 325 352 119 7 65 210 90 211 200 290 307 158 273 170 219 212 239 262 220 291 338 315 346 54 291 1 288 99 245 347 279 299 281 305 18 24 47 111 11 10 54 8 272 185 203 269 237 259 301 294 291 261 241 8 37 1 39 16 7 12 359 349 351 353 353 356 357 2 0
143 153 14 301 41 90 76 142 41 325 294 309 52 285 228 153 137 359 336 288 151 348 123 309 348 193 252 114 149 277 239 352 255 210 320 178 280 15 329 349 11 348 11 319 10 282 351 292 112 314 317 305 314 50 59 346 53 75 263 329 10 343 344 289 340 124 253 255 268 279 276 291 144 113 5 21 4 8 11 7 352 350 358 354 352 356 2 359
113 334 340 304 2 55 130 186 132 158 304 10 344 357 342 345 200 205 164 300 336 169 115 292 199 268 287 128 264 270 278 182 295 275 70 234 255 350 354 48 333 338 35 338 356 314 252 297 359 302 301 305 315 333 335 338 341 305 140 40 15 24 322 355 296 359 276 310 318 288 287 22 189 7 4 9 359 355 12 7 357 1 3 355 351 356 3 0
106 126 307 347 11 41 68 60 105 132 90 3 12 319 129 326 4 290 157 69 184 247 149 242 357 116 52 31 329 320 295 294 181 284 6 303 300 339 29 353 51 5 323 335 356 15 270 17 107 242 266 280 296 307 327 331 333 320 323 23 360 8 341 206 223 251 266 330 312 306 5 299 349 359 1 0 0 357 351 348 352 350 356 356 350 348 2 1
165 79 3 9 341 47 74 16 42 41 41 188 58 269 344 301 267 356 166 66 348 90 355 145 30 21 321 37 309 301 240 320 287 335 278 280 256 263 324 40 40 18 335 329 340 53 47 338 291 294 275 280 322 318 300 316 298 338 19 345 351 24 14 50 59 279 324 302 280 40 347 10 348 359 356 358 350 348 349 341 341 339 354 352 347 340 347 357
69 236 111 206 122 303 42 1 52 74 13 48 106 268 321 354 5 10 320 118 250 38 44 355 54 115 206 251 309 297 304 271 254 250 313 227 331 332 359 5 57 314 1 344 353 62 75 281 294 20 301 295 296 290 290 297 74 114 34 357 5 354 24 45 330 313 341 275 289 335 327 320 1 359 350 348 347 332 343 328 334 328 339 348 345 347 345 355
104 152 144 302 130 309 115 252 69 114 64 38 145 41 5 45 347 340 234 322 38 351 46 329 335 339 343 285 157 284 322 355 326 239 277 308 26 324 358 336 334 7 11 348 3 120 75 261 260 305 297 297 296 274 286 296 95 59 26 6 342 0 21 35 328 320 325 274 291 311 308 293 11 1 349 351 331 332 324 324 331 337 338 344 347 347 344 342
214 120 280 14 88 111 343 29 105 59 65 354 75 325 90 39 325 333 351 115 336 345 31 6 304 323 343 28 162 344 349 24 282 305 263 360 330 58 328 152 287 322 24 353 22 321 91 301 29 320 325 304 291 283 312 54 124 96 21 7 0 330 356 3 325 297 320 275 293 302 294 270 31 11 339 339 333 320 328 336 342 332 335 346 343 346 342 337
160 123 147 112 47 329 347 21 42 81 69 348 59 291 67 291 304 60 265 345 79 12 354 317 309 323 39 73 95 277 284 303 290 266 293 318 280 336 81 285 66 300 337 357 25 328 56 296 22 38 352 305 16 336 320 19 112 103 41 9 349 342 349 351 360 311 312 294 309 309 311 314 334 351 329 334 342 339 332 334 332 331 331 341 342 345 342 336
80 142 87 107 87 339 38 337 14 58 27 258 131 280 164 304 292 6 23 39 52 66 33 297 301 178 324 29 349 318 293 287 274 295 312 203 191 207 196 273 316 262 310 346 220 35 57 17 350 352 346 277 324 337 328 333 134 358 31 6 326 312 322 306 330 299 286 310 299 306 311 348 349 338 335 336 339 335 331 333 333 323 339 344 343 342 343 344